Time,TemperatureF,DewpointF,PressureIn,WindDirection,WindDirectionDegrees,WindSpeedMPH,WindSpeedGustMPH,Humidity,HourlyPrecipIn,Conditions,Clouds,dailyrainin,SoftwareType,DateUTC
2013-02-21 00:03:00,19.8,37.6,30.64,NE,46,0.0,0.0,32,0.00,,,0.00,meteohub,2013-02-21 06:03:00,
2013-02-21 00:09:00,19.6,37.6,30.55,NE,46,0.0,0.0,32,0.00,,,0.00,meteohub,2013-02-21 06:09:00,
2013-02-21 00:14:00,19.6,37.4,30.55,NE,46,0.0,0.0,32,0.00,,,0.00,meteohub,2013-02-21 06:14:00,
2013-02-21 00:19:00,19.6,37.2,30.55,NE,46,0.0,0.0,32,0.00,,,0.00,meteohub,2013-02-21 06:19:00,
2013-02-21 00:24:00,19.6,36.9,30.66,NE,46,0.0,0.0,32,0.00,,,0.00,meteohub,2013-02-21 06:24:00,
2013-02-21 00:29:00,19.6,36.7,30.66,NE,46,0.0,0.0,32,0.00,,,0.00,meteohub,2013-02-21 06:29:00,
2013-02-21 00:34:00,19.8,36.5,30.75,NE,46,0.0,0.0,32,0.00,,,0.00,meteohub,2013-02-21 06:34:00,
2013-02-21 00:39:00,19.8,36.5,30.75,NE,46,0.0,0.0,32,0.00,,,0.00,meteohub,2013-02-21 06:39:00,
2013-02-21 00:44:00,19.8,36.3,30.75,NE,46,0.0,0.0,32,0.00,,,0.00,meteohub,2013-02-21 06:44:00,
2013-02-21 00:49:00,19.8,36.1,30.78,NE,46,0.0,0.0,32,0.00,,,0.00,meteohub,2013-02-21 06:49:00,
2013-02-21 00:54:00,19.9,36.0,30.78,NE,46,0.0,0.0,32,0.00,,,0.00,meteohub,2013-02-21 06:54:00,
2013-02-21 00:59:00,20.3,35.6,30.78,NE,46,0.0,0.0,32,0.00,,,0.00,meteohub,2013-02-21 06:59:00,
2013-02-21 01:05:00,20.5,35.6,30.81,NE,46,0.0,0.0,32,0.00,,,0.00,meteohub,2013-02-21 07:05:00,
2013-02-21 01:10:00,20.7,34.7,30.81,NE,46,0.0,0.0,31,0.00,,,0.00,meteohub,2013-02-21 07:10:00,
2013-02-21 01:15:00,20.7,35.2,30.81,NE,46,0.0,0.0,32,0.00,,,0.00,meteohub,2013-02-21 07:15:00,
2013-02-21 01:20:00,20.8,35.2,30.87,NE,46,2.0,0.0,32,0.00,,,0.00,meteohub,2013-02-21 07:20:00,
2013-02-21 01:25:00,21.0,35.1,30.87,NE,50,3.0,5.0,32,0.00,,,0.00,meteohub,2013-02-21 07:25:00,
2013-02-21 01:30:00,21.2,34.9,30.87,NNE,31,3.0,5.0,32,0.00,,,0.00,meteohub,2013-02-21 07:30:00,
2013-02-21 01:35:00,21.2,34.7,30.87,NE,40,2.0,5.0,32,0.00,,,0.00,meteohub,2013-02-21 07:35:00,
2013-02-21 01:40:00,21.2,34.7,30.87,NE,40,0.0,5.0,32,0.00,,,0.00,meteohub,2013-02-21 07:40:00,
2013-02-21 01:45:00,21.2,34.5,30.87,NE,40,0.0,4.0,32,0.00,,,0.00,meteohub,2013-02-21 07:45:00,
2013-02-21 01:50:00,21.2,34.3,30.93,NE,40,3.0,4.0,32,0.00,,,0.00,meteohub,2013-02-21 07:50:00,
2013-02-21 01:55:00,21.4,34.2,30.93,NE,50,0.0,4.0,32,0.00,,,0.00,meteohub,2013-02-21 07:55:00,
2013-02-21 02:00:00,21.6,34.0,30.93,NNE,32,0.0,4.0,32,0.00,,,0.00,meteohub,2013-02-21 08:00:00,
2013-02-21 02:06:00,21.6,34.0,30.93,ENE,59,0.0,4.0,32,0.00,,,0.00,meteohub,2013-02-21 08:06:00,
2013-02-21 02:11:00,21.9,34.0,30.93,East,91,2.0,4.0,32,0.00,,,0.00,meteohub,2013-02-21 08:11:00,
2013-02-21 02:16:00,22.1,33.8,30.93,ENE,69,3.0,4.0,32,0.00,,,0.00,meteohub,2013-02-21 08:16:00,
2013-02-21 02:21:00,22.3,33.6,30.96,NNE,12,0.0,4.0,32,0.00,,,0.00,meteohub,2013-02-21 08:21:00,
2013-02-21 02:26:00,22.5,33.4,30.96,ENE,65,3.0,4.0,32,0.00,,,0.00,meteohub,2013-02-21 08:26:00,
2013-02-21 02:31:00,22.6,33.4,30.96,ESE,112,0.0,4.0,32,0.00,,,0.00,meteohub,2013-02-21 08:31:00,
2013-02-21 02:36:00,22.6,33.3,30.99,ENE,62,3.0,4.0,32,0.00,,,0.00,meteohub,2013-02-21 08:36:00,
2013-02-21 02:41:00,22.8,33.1,30.99,NE,54,0.0,4.0,32,0.00,,,0.00,meteohub,2013-02-21 08:41:00,
2013-02-21 02:46:00,22.8,33.1,30.99,ENE,58,0.0,4.0,32,0.00,,,0.00,meteohub,2013-02-21 08:46:00,
2013-02-21 02:51:00,22.8,32.9,31.02,ENE,58,0.0,3.0,32,0.00,,,0.00,meteohub,2013-02-21 08:51:00,
2013-02-21 02:56:00,22.8,32.7,31.02,NE,50,0.0,4.0,32,0.00,,,0.00,meteohub,2013-02-21 08:56:00,
2013-02-21 03:02:00,22.8,32.0,31.02,NE,51,3.0,4.0,31,0.00,,,0.00,meteohub,2013-02-21 09:02:00,
2013-02-21 03:07:00,23.0,31.8,31.02,ENE,67,0.0,4.0,31,0.00,,,0.00,meteohub,2013-02-21 09:07:00,
2013-02-21 03:12:00,23.0,31.8,31.02,NE,36,2.0,4.0,31,0.00,,,0.00,meteohub,2013-02-21 09:12:00,
2013-02-21 03:17:00,23.0,31.6,31.02,ENE,62,3.0,6.0,31,0.00,,,0.00,meteohub,2013-02-21 09:17:00,
2013-02-21 03:22:00,23.2,31.5,31.02,East,86,2.0,7.0,31,0.00,,,0.00,meteohub,2013-02-21 09:22:00,
2013-02-21 03:27:00,23.2,31.5,31.02,NE,45,4.0,7.0,31,0.00,,,0.00,meteohub,2013-02-21 09:27:00,
2013-02-21 03:32:00,23.4,32.2,31.02,NE,51,3.0,7.0,32,0.00,,,0.00,meteohub,2013-02-21 09:32:00,
2013-02-21 03:37:00,23.4,32.2,31.02,NNE,28,0.0,5.0,32,0.00,,,0.00,meteohub,2013-02-21 09:37:00,
2013-02-21 03:42:00,23.5,32.0,31.02,NE,56,0.0,5.0,32,0.00,,,0.00,meteohub,2013-02-21 09:42:00,
2013-02-21 03:47:00,23.5,32.0,31.02,NE,53,0.0,5.0,32,0.00,,,0.00,meteohub,2013-02-21 09:47:00,
2013-02-21 03:52:00,23.5,31.8,31.02,NE,43,2.0,4.0,32,0.00,,,0.00,meteohub,2013-02-21 09:52:00,
2013-02-21 03:57:00,23.5,31.8,31.02,NE,45,2.0,4.0,32,0.00,,,0.00,meteohub,2013-02-21 09:57:00,
2013-02-21 04:03:00,23.7,30.9,31.02,NE,42,3.0,4.0,31,0.00,,,0.00,meteohub,2013-02-21 10:03:00,
2013-02-21 04:08:00,23.7,30.9,31.02,ENE,77,0.0,5.0,31,0.00,,,0.00,meteohub,2013-02-21 10:08:00,
2013-02-21 04:13:00,23.9,30.7,31.02,ENE,64,3.0,5.0,31,0.00,,,0.00,meteohub,2013-02-21 10:13:00,
2013-02-21 04:18:00,23.9,30.7,31.02,ENE,64,0.0,5.0,31,0.00,,,0.00,meteohub,2013-02-21 10:18:00,
2013-02-21 04:23:00,24.1,30.6,31.02,East,93,3.0,4.0,31,0.00,,,0.00,meteohub,2013-02-21 10:23:00,
2013-02-21 04:28:00,24.3,30.6,31.02,ENE,71,4.0,4.0,31,0.00,,,0.00,meteohub,2013-02-21 10:28:00,
2013-02-21 04:33:00,24.4,30.4,31.02,ENE,76,2.0,4.0,31,0.00,,,0.00,meteohub,2013-02-21 10:33:00,
2013-02-21 04:38:00,24.4,30.4,31.02,East,84,3.0,6.0,31,0.00,,,0.00,meteohub,2013-02-21 10:38:00,
2013-02-21 04:43:00,24.6,30.2,31.02,SE,128,4.0,6.0,31,0.00,,,0.00,meteohub,2013-02-21 10:43:00,
2013-02-21 04:48:00,24.6,30.2,31.02,East,82,3.0,6.0,31,0.00,,,0.00,meteohub,2013-02-21 10:48:00,
2013-02-21 04:53:00,24.6,30.2,31.02,ESE,123,3.0,6.0,31,0.00,,,0.00,meteohub,2013-02-21 10:53:00,
2013-02-21 04:59:00,24.4,30.2,31.02,ESE,116,0.0,6.0,31,0.00,,,0.00,meteohub,2013-02-21 10:59:00,
2013-02-21 05:04:00,24.4,30.2,31.02,ESE,114,3.0,7.0,31,0.00,,,0.00,meteohub,2013-02-21 11:04:00,
2013-02-21 05:09:00,24.4,30.0,31.02,ESE,118,5.0,7.0,31,0.00,,,0.00,meteohub,2013-02-21 11:09:00,
2013-02-21 05:14:00,24.6,30.6,31.02,East,83,3.0,7.0,32,0.00,,,0.00,meteohub,2013-02-21 11:14:00,
2013-02-21 05:19:00,24.6,30.6,31.02,ESE,107,5.0,8.0,32,0.00,,,0.00,meteohub,2013-02-21 11:19:00,
2013-02-21 05:24:00,24.8,30.6,31.02,ESE,111,3.0,8.0,32,0.00,,,0.00,meteohub,2013-02-21 11:24:00,
2013-02-21 05:29:00,24.8,30.4,31.02,East,84,4.0,8.0,32,0.00,,,0.00,meteohub,2013-02-21 11:29:00,
2013-02-21 05:34:00,25.0,30.4,31.02,ESE,119,3.0,6.0,32,0.00,,,0.00,meteohub,2013-02-21 11:34:00,
2013-02-21 05:39:00,25.0,30.4,31.02,SE,124,3.0,6.0,32,0.00,,,0.00,meteohub,2013-02-21 11:39:00,
2013-02-21 05:44:00,25.2,30.2,31.02,East,97,0.0,7.0,32,0.00,,,0.00,meteohub,2013-02-21 11:44:00,
2013-02-21 05:49:00,25.2,30.2,31.02,East,93,5.0,8.0,32,0.00,,,0.00,meteohub,2013-02-21 11:49:00,
2013-02-21 05:54:00,25.2,30.2,31.02,East,101,3.0,8.0,32,0.00,,,0.00,meteohub,2013-02-21 11:54:00,
2013-02-21 05:59:00,25.2,30.2,31.02,East,90,4.0,9.0,32,0.00,,,0.00,meteohub,2013-02-21 11:59:00,
2013-02-21 06:04:00,25.2,30.2,31.02,ESE,110,3.0,9.0,32,0.00,,,0.00,meteohub,2013-02-21 12:04:00,
2013-02-21 06:09:00,25.2,30.0,31.02,ESE,105,3.0,9.0,32,0.00,,,0.00,meteohub,2013-02-21 12:09:00,
2013-02-21 06:14:00,25.2,30.2,31.02,ENE,63,10.0,10.0,32,0.00,,,0.00,meteohub,2013-02-21 12:14:00,
2013-02-21 06:20:00,25.2,32.0,31.02,East,95,4.0,8.0,33,0.00,,,0.00,meteohub,2013-02-21 12:20:00,
2013-02-21 06:25:00,25.2,33.1,31.02,NE,41,4.0,10.0,33,0.00,,,0.00,meteohub,2013-02-21 12:25:00,
2013-02-21 06:30:00,25.3,34.2,31.02,East,82,4.0,10.0,33,0.00,,,0.00,meteohub,2013-02-21 12:30:00,
2013-02-21 06:35:00,25.3,35.1,31.02,ENE,69,6.0,9.0,33,0.00,,,0.00,meteohub,2013-02-21 12:35:00,
2013-02-21 06:40:00,25.3,36.0,31.02,NE,49,4.0,8.0,33,0.00,,,0.00,meteohub,2013-02-21 12:40:00,
2013-02-21 06:45:00,25.3,36.7,31.02,East,87,6.0,6.0,33,0.00,,,0.00,meteohub,2013-02-21 12:45:00,
2013-02-21 06:50:00,25.3,37.2,30.96,East,100,2.0,6.0,33,0.00,,,0.00,meteohub,2013-02-21 12:50:00,
2013-02-21 06:55:00,25.3,37.6,30.96,ESE,109,4.0,7.0,33,0.00,,,0.00,meteohub,2013-02-21 12:55:00,
2013-02-21 07:00:00,25.3,37.4,30.96,East,92,5.0,8.0,33,0.00,,,0.00,meteohub,2013-02-21 13:00:00,
2013-02-21 07:05:00,25.5,37.4,30.90,ESE,113,4.0,8.0,33,0.00,,,0.00,meteohub,2013-02-21 13:05:00,
2013-02-21 07:10:00,25.5,37.6,30.90,ESE,108,5.0,8.0,33,0.00,,,0.00,meteohub,2013-02-21 13:10:00,
2013-02-21 07:15:00,25.7,37.2,30.90,ENE,66,3.0,8.0,33,0.00,,,0.00,meteohub,2013-02-21 13:15:00,
2013-02-21 07:20:00,25.7,37.6,30.84,ENE,69,3.0,8.0,33,0.00,,,0.00,meteohub,2013-02-21 13:20:00,
2013-02-21 07:25:00,25.9,37.6,30.84,East,94,0.0,8.0,33,0.00,,,0.00,meteohub,2013-02-21 13:25:00,
2013-02-21 07:30:00,25.9,37.4,30.84,ENE,69,4.0,8.0,33,0.00,,,0.00,meteohub,2013-02-21 13:30:00,
2013-02-21 07:36:00,25.9,37.4,30.87,ENE,63,3.0,8.0,33,0.00,,,0.00,meteohub,2013-02-21 13:36:00,
2013-02-21 07:41:00,25.9,37.6,30.87,NE,56,5.0,8.0,33,0.00,,,0.00,meteohub,2013-02-21 13:41:00,
2013-02-21 07:46:00,26.1,37.2,30.87,ESE,123,3.0,11.0,33,0.00,,,0.00,meteohub,2013-02-21 13:46:00,
2013-02-21 07:51:00,26.1,37.4,30.90,SE,135,4.0,11.0,33,0.00,,,0.00,meteohub,2013-02-21 13:51:00,
2013-02-21 07:56:00,26.1,37.2,30.90,ENE,62,5.0,8.0,33,0.00,,,0.00,meteohub,2013-02-21 13:56:00,
2013-02-21 08:01:00,26.1,37.0,30.90,East,91,3.0,8.0,33,0.00,,,0.00,meteohub,2013-02-21 14:01:00,
2013-02-21 08:06:00,26.1,37.4,30.90,ENE,66,4.0,9.0,33,0.00,,,0.00,meteohub,2013-02-21 14:06:00,
2013-02-21 08:11:00,26.1,37.2,30.90,ENE,63,4.0,9.0,33,0.00,,,0.00,meteohub,2013-02-21 14:11:00,
2013-02-21 08:16:00,26.1,37.2,30.90,NE,52,4.0,9.0,33,0.00,,,0.00,meteohub,2013-02-21 14:16:00,
2013-02-21 08:21:00,26.1,37.6,30.84,East,92,3.0,8.0,33,0.00,,,0.00,meteohub,2013-02-21 14:21:00,
2013-02-21 08:26:00,26.2,37.2,30.84,ENE,71,3.0,8.0,33,0.00,,,0.00,meteohub,2013-02-21 14:26:00,
2013-02-21 08:31:00,26.2,37.6,30.84,NW,319,3.0,8.0,33,0.00,,,0.00,meteohub,2013-02-21 14:31:00,
2013-02-21 08:36:00,26.2,37.4,30.87,ENE,71,4.0,9.0,33,0.00,,,0.00,meteohub,2013-02-21 14:36:00,
2013-02-21 08:41:00,26.4,37.4,30.87,East,91,3.0,9.0,33,0.00,,,0.00,meteohub,2013-02-21 14:41:00,
2013-02-21 08:46:00,26.4,37.8,30.87,ESE,113,4.0,9.0,33,0.00,,,0.00,meteohub,2013-02-21 14:46:00,
2013-02-21 08:52:00,26.4,38.5,30.75,ESE,113,6.0,6.0,33,0.00,,,0.00,meteohub,2013-02-21 14:52:00,
2013-02-21 08:57:00,26.4,38.5,30.75,ESE,106,4.0,8.0,33,0.00,,,0.00,meteohub,2013-02-21 14:57:00,
2013-02-21 09:02:00,26.4,37.4,30.75,East,90,4.0,8.0,32,0.00,,,0.00,meteohub,2013-02-21 15:02:00,
2013-02-21 09:07:00,26.4,38.5,30.75,East,79,5.0,9.0,33,0.00,,,0.00,meteohub,2013-02-21 15:07:00,
2013-02-21 09:12:00,26.4,38.5,30.75,ESE,106,10.0,11.0,33,0.00,,,0.00,meteohub,2013-02-21 15:12:00,
2013-02-21 09:17:00,26.4,38.1,30.75,East,80,8.0,11.0,33,0.00,,,0.00,meteohub,2013-02-21 15:17:00,
2013-02-21 09:22:00,26.4,38.3,30.75,ENE,76,4.0,11.0,33,0.00,,,0.00,meteohub,2013-02-21 15:22:00,
2013-02-21 09:27:00,26.4,38.7,30.75,NE,45,4.0,11.0,33,0.00,,,0.00,meteohub,2013-02-21 15:27:00,
2013-02-21 09:32:00,26.4,38.3,30.75,ESE,102,5.0,11.0,33,0.00,,,0.00,meteohub,2013-02-21 15:32:00,
2013-02-21 09:37:00,26.4,37.9,30.69,ENE,73,4.0,11.0,33,0.00,,,0.00,meteohub,2013-02-21 15:37:00,
2013-02-21 09:42:00,26.2,38.5,30.69,East,101,3.0,8.0,33,0.00,,,0.00,meteohub,2013-02-21 15:42:00,
2013-02-21 09:47:00,26.2,38.5,30.69,SE,133,3.0,8.0,33,0.00,,,0.00,meteohub,2013-02-21 15:47:00,
2013-02-21 09:52:00,26.2,38.1,30.69,ENE,76,4.0,8.0,33,0.00,,,0.00,meteohub,2013-02-21 15:52:00,
2013-02-21 09:57:00,26.2,37.2,30.69,ESE,115,4.0,6.0,32,0.00,,,0.00,meteohub,2013-02-21 15:57:00,
2013-02-21 10:03:00,26.2,37.9,30.69,NE,45,8.0,8.0,33,0.00,,,0.00,meteohub,2013-02-21 16:03:00,
2013-02-21 10:08:00,26.1,38.3,30.75,ENE,67,6.0,8.0,33,0.00,,,0.00,meteohub,2013-02-21 16:08:00,
2013-02-21 10:13:00,26.2,37.4,30.75,ENE,75,4.0,11.0,32,0.00,,,0.00,meteohub,2013-02-21 16:13:00,
2013-02-21 10:18:00,26.1,37.0,30.75,East,87,5.0,11.0,32,0.00,,,0.00,meteohub,2013-02-21 16:18:00,
2013-02-21 10:23:00,26.1,37.6,30.66,ESE,105,3.0,11.0,33,0.00,,,0.00,meteohub,2013-02-21 16:23:00,
2013-02-21 10:28:00,26.2,37.2,30.66,NE,38,5.0,11.0,32,0.00,,,0.00,meteohub,2013-02-21 16:28:00,
2013-02-21 10:33:00,26.4,37.2,30.66,ESE,122,8.0,8.0,32,0.00,,,0.00,meteohub,2013-02-21 16:33:00,
2013-02-21 10:38:00,26.6,37.6,30.64,ESE,118,6.0,8.0,33,0.00,,,0.00,meteohub,2013-02-21 16:38:00,
2013-02-21 10:43:00,26.8,37.6,30.64,NE,49,4.0,10.0,33,0.00,,,0.00,meteohub,2013-02-21 16:43:00,
2013-02-21 10:48:00,26.6,37.6,30.64,NE,44,3.0,10.0,33,0.00,,,0.00,meteohub,2013-02-21 16:48:00,
2013-02-21 10:54:00,26.6,37.6,30.75,NE,37,6.0,8.0,33,0.00,,,0.00,meteohub,2013-02-21 16:54:00,
2013-02-21 10:59:00,26.4,37.6,30.75,NE,47,4.0,8.0,33,0.00,,,0.00,meteohub,2013-02-21 16:59:00,
2013-02-21 11:04:00,26.4,37.4,30.75,SE,133,0.0,8.0,33,0.00,,,0.00,meteohub,2013-02-21 17:04:00,
2013-02-21 11:09:00,26.4,37.4,30.75,NE,37,5.0,8.0,33,0.00,,,0.00,meteohub,2013-02-21 17:09:00,
2013-02-21 11:14:00,26.6,37.6,30.75,East,95,6.0,8.0,33,0.00,,,0.00,meteohub,2013-02-21 17:14:00,
2013-02-21 11:19:00,26.4,37.4,30.75,ENE,71,5.0,8.0,33,0.00,,,0.00,meteohub,2013-02-21 17:19:00,
2013-02-21 11:24:00,26.6,37.2,30.75,East,86,9.0,9.0,33,0.00,,,0.00,meteohub,2013-02-21 17:24:00,
2013-02-21 11:29:00,26.4,37.4,30.75,ENE,59,5.0,9.0,33,0.00,,,0.00,meteohub,2013-02-21 17:29:00,
2013-02-21 11:34:00,26.4,37.6,30.75,ESE,116,4.0,9.0,33,0.00,,,0.00,meteohub,2013-02-21 17:34:00,
2013-02-21 11:39:00,26.4,37.4,30.75,East,93,7.0,9.0,33,0.00,,,0.00,meteohub,2013-02-21 17:39:00,
2013-02-21 11:44:00,26.4,37.2,30.75,ESE,116,3.0,8.0,33,0.00,,,0.00,meteohub,2013-02-21 17:44:00,
2013-02-21 11:50:00,26.4,37.6,30.69,East,79,8.0,8.0,33,0.00,,,0.00,meteohub,2013-02-21 17:50:00,
2013-02-21 11:55:00,26.4,37.4,30.69,NE,41,6.0,8.0,33,0.00,,,0.00,meteohub,2013-02-21 17:55:00,
2013-02-21 12:00:00,26.4,37.2,30.69,NE,55,4.0,13.0,33,0.00,,,0.00,meteohub,2013-02-21 18:00:00,
2013-02-21 12:05:00,26.4,37.6,30.75,East,85,6.0,13.0,33,0.00,,,0.00,meteohub,2013-02-21 18:05:00,
2013-02-21 12:10:00,26.4,37.6,30.75,ENE,66,4.0,8.0,33,0.00,,,0.00,meteohub,2013-02-21 18:10:00,
2013-02-21 12:15:00,26.6,37.2,30.75,NE,52,0.0,8.0,32,0.00,,,0.00,meteohub,2013-02-21 18:15:00,
2013-02-21 12:20:00,26.6,38.8,30.64,NE,46,3.0,8.0,33,0.00,,,0.00,meteohub,2013-02-21 18:20:00,
2013-02-21 12:25:00,26.8,38.3,30.64,East,83,6.0,6.0,32,0.00,,,0.00,meteohub,2013-02-21 18:25:00,
2013-02-21 12:30:00,26.8,37.9,30.64,North,353,5.0,6.0,32,0.00,,,0.00,meteohub,2013-02-21 18:30:00,
2013-02-21 12:35:00,27.0,38.8,30.64,North,357,5.0,6.0,33,0.00,,,0.00,meteohub,2013-02-21 18:35:00,
2013-02-21 12:40:00,26.8,38.1,30.64,North,5,4.0,6.0,32,0.00,,,0.00,meteohub,2013-02-21 18:40:00,
2013-02-21 12:45:00,26.8,37.9,30.64,NE,42,6.0,9.0,32,0.00,,,0.00,meteohub,2013-02-21 18:45:00,
2013-02-21 12:50:00,26.6,37.9,30.55,ENE,70,4.0,9.0,32,0.00,,,0.00,meteohub,2013-02-21 18:50:00,
2013-02-21 12:56:00,26.4,39.2,30.55,NNE,20,3.0,9.0,33,0.00,,,0.00,meteohub,2013-02-21 18:56:00,
2013-02-21 13:01:00,26.4,39.2,30.55,NNE,12,6.0,9.0,33,0.00,,,0.00,meteohub,2013-02-21 19:01:00,
2013-02-21 13:06:00,26.4,38.1,30.52,ENE,61,8.0,9.0,32,0.00,,,0.00,meteohub,2013-02-21 19:06:00,
2013-02-21 13:11:00,26.2,39.2,30.52,North,9,8.0,8.0,33,0.00,,,0.00,meteohub,2013-02-21 19:11:00,
2013-02-21 13:16:00,26.2,39.2,30.52,NE,45,6.0,11.0,33,0.00,,,0.00,meteohub,2013-02-21 19:16:00,
2013-02-21 13:21:00,26.2,39.2,30.55,NE,38,8.0,11.0,33,0.00,,,0.00,meteohub,2013-02-21 19:21:00,
2013-02-21 13:26:00,26.2,39.2,30.55,NE,35,5.0,10.0,33,0.00,,,0.00,meteohub,2013-02-21 19:26:00,
2013-02-21 13:31:00,26.4,38.3,30.55,NNE,29,6.0,9.0,32,0.00,,,0.00,meteohub,2013-02-21 19:31:00,
2013-02-21 13:36:00,26.2,39.2,30.52,NE,50,4.0,9.0,33,0.00,,,0.00,meteohub,2013-02-21 19:36:00,
2013-02-21 13:41:00,26.2,38.7,30.52,NE,45,0.0,6.0,32,0.00,,,0.00,meteohub,2013-02-21 19:41:00,
2013-02-21 13:46:00,26.2,38.5,30.52,NE,48,4.0,6.0,32,0.00,,,0.00,meteohub,2013-02-21 19:46:00,
2013-02-21 13:51:00,26.2,38.1,30.52,North,10,3.0,6.0,32,0.00,,,0.00,meteohub,2013-02-21 19:51:00,
2013-02-21 13:56:00,26.2,38.1,30.52,ENE,62,4.0,6.0,32,0.00,,,0.00,meteohub,2013-02-21 19:56:00,
2013-02-21 14:01:00,26.1,38.5,30.52,ENE,58,3.0,8.0,32,0.00,,,0.00,meteohub,2013-02-21 20:01:00,
2013-02-21 14:07:00,26.1,38.5,30.49,NNE,17,8.0,8.0,32,0.00,,,0.00,meteohub,2013-02-21 20:07:00,
2013-02-21 14:12:00,25.9,38.1,30.49,NNE,27,8.0,11.0,32,0.00,,,0.00,meteohub,2013-02-21 20:12:00,
2013-02-21 14:17:00,25.7,38.1,30.49,NE,46,4.0,11.0,32,0.00,,,0.00,meteohub,2013-02-21 20:17:00,
2013-02-21 14:22:00,25.5,38.5,30.52,ENE,73,5.0,11.0,32,0.00,,,0.00,meteohub,2013-02-21 20:22:00,
2013-02-21 14:27:00,25.5,38.5,30.52,ENE,68,4.0,8.0,32,0.00,,,0.00,meteohub,2013-02-21 20:27:00,
2013-02-21 14:32:00,25.5,38.3,30.52,East,98,3.0,6.0,32,0.00,,,0.00,meteohub,2013-02-21 20:32:00,
2013-02-21 14:37:00,25.5,38.1,30.55,East,96,5.0,7.0,32,0.00,,,0.00,meteohub,2013-02-21 20:37:00,
2013-02-21 14:42:00,25.5,38.5,30.55,East,80,5.0,8.0,32,0.00,,,0.00,meteohub,2013-02-21 20:42:00,
2013-02-21 14:47:00,25.5,38.3,30.55,NE,41,8.0,8.0,32,0.00,,,0.00,meteohub,2013-02-21 20:47:00,
2013-02-21 14:52:00,25.5,38.1,30.43,East,86,8.0,9.0,32,0.00,,,0.00,meteohub,2013-02-21 20:52:00,
2013-02-21 14:58:00,25.5,38.5,30.43,East,86,8.0,10.0,32,0.00,,,0.00,meteohub,2013-02-21 20:58:00,
2013-02-21 15:03:00,25.5,38.3,30.43,NE,55,7.0,11.0,32,0.00,,,0.00,meteohub,2013-02-21 21:03:00,
2013-02-21 15:08:00,25.7,38.1,30.37,NE,40,6.0,11.0,32,0.00,,,0.00,meteohub,2013-02-21 21:08:00,
2013-02-21 15:13:00,25.7,38.3,30.37,ENE,65,6.0,15.0,32,0.00,,,0.00,meteohub,2013-02-21 21:13:00,
2013-02-21 15:18:00,25.9,38.5,30.37,East,83,8.0,15.0,32,0.00,,,0.00,meteohub,2013-02-21 21:18:00,
2013-02-21 15:23:00,26.1,38.3,30.37,NE,36,4.0,15.0,32,0.00,,,0.00,meteohub,2013-02-21 21:23:00,
2013-02-21 15:28:00,26.2,38.1,30.37,ENE,73,10.0,13.0,32,0.00,,,0.00,meteohub,2013-02-21 21:28:00,
2013-02-21 15:33:00,26.4,38.3,30.37,ENE,74,8.0,12.0,32,0.00,,,0.00,meteohub,2013-02-21 21:33:00,
2013-02-21 15:38:00,26.6,38.1,30.34,East,96,8.0,13.0,32,0.00,,,0.00,meteohub,2013-02-21 21:38:00,
2013-02-21 15:43:00,26.8,37.9,30.34,ENE,67,8.0,15.0,32,0.00,,,0.00,meteohub,2013-02-21 21:43:00,
2013-02-21 15:48:00,27.0,37.9,30.34,ESE,107,4.0,15.0,32,0.00,,,0.00,meteohub,2013-02-21 21:48:00,
2013-02-21 15:53:00,27.1,37.9,30.34,East,86,9.0,15.0,32,0.00,,,0.00,meteohub,2013-02-21 21:53:00,
2013-02-21 15:58:00,27.1,37.8,30.34,East,84,5.0,10.0,32,0.00,,,0.00,meteohub,2013-02-21 21:58:00,
2013-02-21 16:03:00,27.3,37.8,30.34,NE,51,4.0,10.0,32,0.00,,,0.00,meteohub,2013-02-21 22:03:00,
2013-02-21 16:09:00,27.3,37.9,30.43,ENE,68,5.0,10.0,32,0.00,,,0.00,meteohub,2013-02-21 22:09:00,
2013-02-21 16:14:00,27.5,37.8,30.43,ENE,64,6.0,10.0,32,0.00,,,0.00,meteohub,2013-02-21 22:14:00,
2013-02-21 16:19:00,27.7,37.6,30.43,ENE,68,3.0,10.0,32,0.00,,,0.00,meteohub,2013-02-21 22:19:00,
2013-02-21 16:24:00,27.9,37.8,30.40,NW,315,3.0,10.0,32,0.00,,,0.00,meteohub,2013-02-21 22:24:00,
2013-02-21 16:29:00,28.2,37.8,30.40,ENE,69,5.0,11.0,32,0.00,,,0.00,meteohub,2013-02-21 22:29:00,
2013-02-21 16:34:00,28.2,37.6,30.40,SE,144,8.0,11.0,32,0.00,,,0.00,meteohub,2013-02-21 22:34:00,
2013-02-21 16:39:00,28.4,37.6,30.43,ENE,75,8.0,13.0,32,0.00,,,0.00,meteohub,2013-02-21 22:39:00,
2013-02-21 16:44:00,28.4,37.8,30.43,East,99,9.0,13.0,32,0.00,,,0.00,meteohub,2013-02-21 22:44:00,
2013-02-21 16:49:00,28.4,37.6,30.43,East,81,7.0,11.0,32,0.00,,,0.00,meteohub,2013-02-21 22:49:00,
2013-02-21 16:54:00,28.6,37.6,30.40,East,81,10.0,13.0,32,0.00,,,0.00,meteohub,2013-02-21 22:54:00,
2013-02-21 16:59:00,28.9,37.8,30.40,ESE,115,5.0,13.0,32,0.00,,,0.00,meteohub,2013-02-21 22:59:00,
2013-02-21 17:05:00,28.9,37.6,30.40,NNE,16,3.0,13.0,32,0.00,,,0.00,meteohub,2013-02-21 23:05:00,
2013-02-21 17:10:00,29.3,37.6,30.40,East,85,10.0,13.0,32,0.00,,,0.00,meteohub,2013-02-21 23:10:00,
2013-02-21 17:15:00,29.5,37.6,30.40,ESE,108,6.0,23.0,32,0.00,,,0.00,meteohub,2013-02-21 23:15:00,
2013-02-21 17:20:00,29.5,37.6,30.46,East,89,5.0,23.0,32,0.00,,,0.00,meteohub,2013-02-21 23:20:00,
2013-02-21 17:25:00,29.7,37.6,30.46,South,181,4.0,23.0,32,0.00,,,0.00,meteohub,2013-02-21 23:25:00,
2013-02-21 17:30:00,29.8,37.6,30.46,ENE,78,6.0,13.0,32,0.00,,,0.00,meteohub,2013-02-21 23:30:00,
2013-02-21 17:35:00,29.8,37.6,30.43,ENE,64,4.0,13.0,32,0.00,,,0.00,meteohub,2013-02-21 23:35:00,
2013-02-21 17:40:00,30.0,37.6,30.43,ESE,112,6.0,13.0,32,0.00,,,0.00,meteohub,2013-02-21 23:40:00,
2013-02-21 17:45:00,30.2,37.6,30.43,ESE,112,7.0,14.0,32,0.00,,,0.00,meteohub,2013-02-21 23:45:00,
2013-02-21 17:50:00,30.2,37.6,30.40,ENE,61,4.0,14.0,32,0.00,,,0.00,meteohub,2013-02-21 23:50:00,
2013-02-21 17:55:00,30.2,37.8,30.40,SE,139,4.0,14.0,32,0.00,,,0.00,meteohub,2013-02-21 23:55:00,
2013-02-21 18:01:00,30.4,37.6,30.40,East,84,5.0,12.0,32,0.00,,,0.00,meteohub,2013-02-22 00:01:00,
2013-02-21 18:06:00,30.4,38.7,30.40,East,95,4.0,12.0,33,0.00,,,0.00,meteohub,2013-02-22 00:06:00,
2013-02-21 18:11:00,30.6,38.8,30.40,ENE,59,10.0,12.0,33,0.00,,,0.00,meteohub,2013-02-22 00:11:00,
2013-02-21 18:16:00,30.6,38.7,30.40,ESE,114,11.0,11.0,33,0.00,,,0.00,meteohub,2013-02-22 00:16:00,
2013-02-21 18:21:00,30.7,38.5,30.40,East,96,6.0,12.0,33,0.00,,,0.00,meteohub,2013-02-22 00:21:00,
2013-02-21 18:26:00,30.9,38.8,30.40,ESE,115,8.0,12.0,33,0.00,,,0.00,meteohub,2013-02-22 00:26:00,
2013-02-21 18:31:00,30.9,38.8,30.40,East,99,7.0,16.0,33,0.00,,,0.00,meteohub,2013-02-22 00:31:00,
2013-02-21 18:36:00,31.1,38.7,30.34,ESE,115,5.0,16.0,33,0.00,,,0.00,meteohub,2013-02-22 00:36:00,
2013-02-21 18:41:00,31.1,38.8,30.34,SSE,161,8.0,16.0,33,0.00,,,0.00,meteohub,2013-02-22 00:41:00,
2013-02-21 18:46:00,31.1,38.8,30.34,East,84,6.0,11.0,33,0.00,,,0.00,meteohub,2013-02-22 00:46:00,
2013-02-21 18:51:00,31.3,38.7,30.37,East,89,5.0,8.0,33,0.00,,,0.00,meteohub,2013-02-22 00:51:00,
2013-02-21 18:56:00,31.3,38.5,30.37,SE,124,5.0,13.0,33,0.00,,,0.00,meteohub,2013-02-22 00:56:00,
2013-02-21 19:01:00,31.3,38.7,30.37,East,95,8.0,13.0,33,0.00,,,0.00,meteohub,2013-02-22 01:01:00,
2013-02-21 19:07:00,31.3,38.7,30.34,NE,37,3.0,13.0,33,0.00,,,0.00,meteohub,2013-02-22 01:07:00,
2013-02-21 19:12:00,31.3,38.5,30.34,East,89,6.0,10.0,33,0.00,,,0.00,meteohub,2013-02-22 01:12:00,
2013-02-21 19:17:00,31.1,38.7,30.34,East,98,5.0,13.0,33,0.00,,,0.00,meteohub,2013-02-22 01:17:00,
2013-02-21 19:22:00,31.1,37.9,30.43,ENE,66,5.0,13.0,32,0.00,,,0.00,meteohub,2013-02-22 01:22:00,
2013-02-21 19:27:00,31.3,37.8,30.43,ESE,103,2.0,13.0,32,0.00,,,0.00,meteohub,2013-02-22 01:27:00,
2013-02-21 19:32:00,31.3,37.8,30.43,East,95,0.0,12.0,32,0.00,,,0.00,meteohub,2013-02-22 01:32:00,
2013-02-21 19:37:00,31.3,37.9,30.43,ENE,58,3.0,10.0,32,0.00,,,0.00,meteohub,2013-02-22 01:37:00,
2013-02-21 19:42:00,31.3,37.9,30.43,East,79,0.0,10.0,32,0.00,,,0.00,meteohub,2013-02-22 01:42:00,
2013-02-21 19:47:00,31.3,37.8,30.43,East,99,4.0,10.0,32,0.00,,,0.00,meteohub,2013-02-22 01:47:00,
2013-02-21 19:52:00,31.3,38.1,30.34,ENE,58,5.0,8.0,32,0.00,,,0.00,meteohub,2013-02-22 01:52:00,
2013-02-21 19:57:00,31.5,37.9,30.34,ESE,102,2.0,8.0,32,0.00,,,0.00,meteohub,2013-02-22 01:57:00,
2013-02-21 20:02:00,31.5,37.8,30.34,ESE,118,4.0,9.0,32,0.00,,,0.00,meteohub,2013-02-22 02:02:00,
2013-02-21 20:07:00,31.5,37.9,30.40,SE,142,4.0,9.0,32,0.00,,,0.00,meteohub,2013-02-22 02:07:00,
2013-02-21 20:12:00,31.5,38.1,30.40,ESE,102,6.0,12.0,32,0.00,,,0.00,meteohub,2013-02-22 02:12:00,
2013-02-21 20:17:00,31.5,37.9,30.40,SSE,151,0.0,12.0,32,0.00,,,0.00,meteohub,2013-02-22 02:17:00,
2013-02-21 20:23:00,31.6,37.8,30.37,ESE,102,3.0,12.0,32,0.00,,,0.00,meteohub,2013-02-22 02:23:00,
2013-02-21 20:28:00,31.6,37.9,30.37,West,276,3.0,11.0,32,0.00,,,0.00,meteohub,2013-02-22 02:28:00,
2013-02-21 20:33:00,31.6,37.9,30.37,NE,35,0.0,9.0,32,0.00,,,0.00,meteohub,2013-02-22 02:33:00,
2013-02-21 20:38:00,31.8,37.8,30.37,ESE,120,6.0,9.0,32,0.00,,,0.00,meteohub,2013-02-22 02:38:00,
2013-02-21 20:43:00,31.8,37.8,30.37,ESE,112,5.0,8.0,32,0.00,,,0.00,meteohub,2013-02-22 02:43:00,
2013-02-21 20:48:00,32.0,37.9,30.37,East,79,3.0,8.0,32,0.00,,,0.00,meteohub,2013-02-22 02:48:00,
2013-02-21 20:53:00,32.0,37.8,30.40,East,95,4.0,8.0,32,0.00,,,0.00,meteohub,2013-02-22 02:53:00,
2013-02-21 20:58:00,32.2,37.6,30.40,East,93,3.0,8.0,32,0.00,,,0.00,meteohub,2013-02-22 02:58:00,
2013-02-21 21:03:00,32.2,37.8,30.40,SE,125,4.0,6.0,32,0.00,,,0.00,meteohub,2013-02-22 03:03:00,
2013-02-21 21:08:00,32.2,37.8,30.37,ESE,122,5.0,6.0,32,0.00,,,0.00,meteohub,2013-02-22 03:08:00,
2013-02-21 21:13:00,32.4,37.6,30.37,ESE,122,2.0,6.0,32,0.00,,,0.00,meteohub,2013-02-22 03:13:00,
2013-02-21 21:18:00,32.4,37.6,30.37,ESE,108,6.0,6.0,32,0.00,,,0.00,meteohub,2013-02-22 03:18:00,
2013-02-21 21:23:00,32.4,37.8,30.40,ESE,110,0.0,8.0,32,0.00,,,0.00,meteohub,2013-02-22 03:23:00,
2013-02-21 21:28:00,32.4,37.6,30.40,ESE,107,4.0,8.0,32,0.00,,,0.00,meteohub,2013-02-22 03:28:00,
2013-02-21 21:34:00,32.4,37.6,30.40,ESE,109,0.0,8.0,32,0.00,,,0.00,meteohub,2013-02-22 03:34:00,
2013-02-21 21:39:00,32.4,37.8,30.43,ESE,102,3.0,6.0,32,0.00,,,0.00,meteohub,2013-02-22 03:39:00,
2013-02-21 21:44:00,32.5,37.8,30.43,ESE,117,3.0,6.0,32,0.00,,,0.00,meteohub,2013-02-22 03:44:00,
2013-02-21 21:49:00,32.5,37.6,30.43,ESE,117,4.0,6.0,32,0.00,,,0.00,meteohub,2013-02-22 03:49:00,
2013-02-21 21:54:00,32.5,37.8,30.40,SSW,200,0.0,6.0,32,0.00,,,0.00,meteohub,2013-02-22 03:54:00,
2013-02-21 21:59:00,32.5,37.8,30.40,SE,131,3.0,5.0,32,0.00,,,0.00,meteohub,2013-02-22 03:59:00,
2013-02-21 22:04:00,32.5,37.6,30.46,ESE,119,0.0,5.0,32,0.00,,,0.00,meteohub,2013-02-22 04:04:00,
2013-02-21 22:09:00,32.5,37.6,30.46,SE,132,0.0,5.0,32,0.00,,,0.00,meteohub,2013-02-22 04:09:00,
2013-02-21 22:15:00,32.5,37.8,30.46,ESE,122,0.0,5.0,32,0.00,,,0.00,meteohub,2013-02-22 04:15:00,
2013-02-21 22:20:00,32.7,37.6,30.46,SE,130,2.0,6.0,32,0.00,,,0.00,meteohub,2013-02-22 04:20:00,
2013-02-21 22:25:00,32.7,37.6,30.46,ESE,106,3.0,6.0,32,0.00,,,0.00,meteohub,2013-02-22 04:25:00,
2013-02-21 22:30:00,32.7,37.8,30.46,East,83,0.0,6.0,32,0.00,,,0.00,meteohub,2013-02-22 04:30:00,
2013-02-21 22:35:00,32.7,37.6,30.43,SE,124,3.0,5.0,32,0.00,,,0.00,meteohub,2013-02-22 04:35:00,
2013-02-21 22:40:00,32.7,37.6,30.43,SE,128,2.0,5.0,32,0.00,,,0.00,meteohub,2013-02-22 04:40:00,
2013-02-21 22:45:00,32.7,37.6,30.43,ESE,116,3.0,4.0,32,0.00,,,0.00,meteohub,2013-02-22 04:45:00,
2013-02-21 22:50:00,32.7,37.6,30.43,ESE,109,2.0,4.0,32,0.00,,,0.00,meteohub,2013-02-22 04:50:00,
2013-02-21 22:55:00,32.7,37.6,30.43,ESE,120,0.0,5.0,32,0.00,,,0.00,meteohub,2013-02-22 04:55:00,
2013-02-21 23:00:00,32.7,37.4,30.43,ESE,104,0.0,5.0,32,0.00,,,0.00,meteohub,2013-02-22 05:00:00,
2013-02-21 23:02:00,32.7,37.2,30.43,SSW,207,3.0,5.0,32,0.00,,,0.00,meteohub,2013-02-22 05:02:00,
2013-02-21 23:07:00,32.7,37.2,30.55,South,189,0.0,5.0,32,0.00,,,0.00,meteohub,2013-02-22 05:07:00,
2013-02-21 23:12:00,32.7,37.6,30.55,South,189,0.0,5.0,32,0.00,,,0.00,meteohub,2013-02-22 05:12:00,
2013-02-21 23:16:00,32.7,37.4,30.55,East,98,0.0,5.0,32,0.00,,,0.00,meteohub,2013-02-22 05:16:00,
2013-02-21 23:21:00,32.7,37.2,30.49,East,99,0.0,3.0,32,0.00,,,0.00,meteohub,2013-02-22 05:21:00,
2013-02-21 23:26:00,32.7,37.2,30.49,ESE,116,3.0,3.0,32,0.00,,,0.00,meteohub,2013-02-22 05:26:00,
2013-02-21 23:31:00,32.7,37.4,30.49,ESE,115,3.0,5.0,32,0.00,,,0.00,meteohub,2013-02-22 05:31:00,
2013-02-21 23:36:00,32.7,37.4,30.55,ESE,108,0.0,5.0,32,0.00,,,0.00,meteohub,2013-02-22 05:36:00,
2013-02-21 23:41:00,32.7,37.2,30.55,SSW,212,0.0,5.0,32,0.00,,,0.00,meteohub,2013-02-22 05:41:00,
2013-02-21 23:46:00,32.9,37.0,30.55,SSW,212,0.0,5.0,32,0.00,,,0.00,meteohub,2013-02-22 05:46:00,
2013-02-21 23:51:00,32.9,37.2,30.58,SSW,212,0.0,4.0,32,0.00,,,0.00,meteohub,2013-02-22 05:51:00,
2013-02-21 23:56:00,32.9,37.2,30.58,SSW,212,0.0,3.0,32,0.00,,,0.00,meteohub,2013-02-22 05:56:00,